Lid_Strength_Index
12 10 11 11 11 10 12 13 14 12 13 9 9 9 7 6 7 6 7 7 5 5 5 4 3 3 3 2 2 2 2 2 2 1 1 1 1 1 1 1 1 1 1 1
13 11 11 11 10 10 10 11 11 11 12 8 7 7 7 7 7 8 8 7 5 4 4 4 3 3 3 3 3 3 3 2 2 2 2 2 1 1 1 2 1 1 1 1
15 12 11 13 10 11 10 9 10 13 10 8 9 8 7 8 7 8 7 6 5 4 4 4 4 3 3 3 3 4 4 3 2 2 2 2 1 1 1 2 2 1 1 1
16 14 18 11 8 8 9 9 8 9 8 7 8 8 8 8 7 7 5 5 4 5 5 4 4 4 4 4 4 4 4 4 4 4 3 3 2 2 2 2 3 2 2 1
16 16 12 10 9 9 10 10 8 9 8 8 8 8 9 6 6 5 6 5 5 5 4 5 5 5 4 4 5 4 4 4 4 4 4 4 3 2 2 2 2 3 1 1
13 16 16 11 8 6 8 13 8 8 8 8 9 12 10 6 6 6 5 5 5 4 5 5 5 5 5 5 5 5 3 3 3 3 4 4 3 2 2 3 2 1 1 1
13 14 12 9 7 7 13 12 8 7 7 8 9 9 8 5 6 6 5 4 4 4 5 5 5 5 5 5 5 4 3 3 3 3 3 3 3 3 3 3 3 2 2 1
13 15 16 7 7 11 9 8 7 7 7 8 8 7 6 7 7 5 5 5 4 5 5 5 4 5 6 6 5 4 4 4 3 3 3 2 3 3 4 3 3 3 3 3
12 12 8 7 7 6 6 7 7 7 7 7 6 6 6 7 5 5 5 5 5 5 5 5 5 4 5 4 5 5 4 4 4 3 3 3 4 4 4 2 3 3 3 3
10 9 8 7 6 5 6 6 6 6 6 6 6 6 7 7 6 6 5 5 5 5 6 6 6 4 4 4 3 3 4 4 4 4 4 3 4 4 3 2 3 3 3 4
10 9 7 6 6 6 6 6 6 6 6 6 6 7 7 7 6 5 5 5 5 6 6 6 6 4 3 3 3 4 4 3 4 4 3 3 2 3 2 2 4 3 4 4
11 8 8 7 6 6 6 7 6 7 7 6 7 8 6 6 6 6 6 5 5 6 6 6 6 5 5 3 3 4 4 4 4 4 4 3 3 3 4 6 8 9 10 8
8 6 6 6 5 5 6 6 6 7 7 7 7 7 6 8 8 6 6 6 6 6 6 6 6 6 5 5 3 3 4 4 4 4 4 4 4 4 4 3 7 8 9 9
6 6 6 5 6 5 5 6 6 7 8 6 7 7 8 8 8 8 8 8 5 5 6 6 6 6 5 5 5 3 4 4 4 3 3 3 4 4 4 4 5 4 7 9
6 5 6 5 6 6 6 7 8 9 8 7 7 7 7 8 8 8 8 8 7 7 7 7 7 7 5 5 6 6 5 4 3 4 5 4 4 5 5 5 5 5 7 7
5 5 5 5 6 6 7 7 9 9 8 7 7 7 7 7 8 8 8 8 9 9 8 8 8 7 6 5 6 6 6 3 4 5 4 4 5 5 5 5 5 5 6 7
6 7 6 6 6 6 7 7 7 8 7 7 7 7 7 7 7 7 8 8 8 8 7 8 8 7 7 5 5 5 5 6 4 6 6 6 6 5 5 5 6 6 6 6
5 5 5 5 5 5 6 6 5 6 8 7 6 6 6 7 7 7 7 8 8 8 7 7 7 8 7 5 5 5 5 6 6 6 7 7 7 7 7 7 8 7 6 6
4 4 4 4 4 4 4 5 6 6 7 7 7 7 6 6 7 6 6 7 7 8 7 6 4 5 8 7 3 6 5 5 5 6 7 6 7 7 8 8 8 8 8 8
4 4 3 4 3 4 5 5 5 6 7 6 6 6 6 6 6 6 6 6 6 5 5 6 5 7 8 8 3 7 6 5 5 6 7 7 7 7 8 8 8 8 8 8
4 4 4 4 4 5 5 5 5 5 5 6 6 6 6 6 5 4 6 6 4 4 5 4 5 7 8 6 6 7 6 6 5 6 7 6 7 7 7 7 8 8 8 8
4 4 4 4 4 5 5 5 5 5 4 5 5 5 5 5 5 4 4 4 3 4 4 5 6 5 7 4 7 6 6 6 5 6 6 6 6 7 7 7 7 7 8 8
4 4 4 4 4 4 3 5 5 5 5 5 5 5 4 4 3 4 4 3 3 3 4 5 4 3 3 6 7 6 5 5 6 6 6 6 6 5 6 7 7 7 7 7
5 4 4 4 5 5 5 3 3 3 5 4 4 4 4 4 4 3 3 3 4 3 3 4 3 3 3 6 6 5 5 5 6 6 5 6 5 6 5 6 6 7 7 7
4 5 4 5 5 4 4 4 3 3 3 3 2 3 3 2 3 3 3 3 4 4 3 3 3 3 5 6 6 5 4 4 5 5 5 5 6 5 5 5 6 6 6 6
4 4 4 4 4 4 4 4 4 3 3 3 3 2 2 2 2 3 3 4 3 4 2 3 3 4 5 6 6 5 4 3 3 4 5 5 5 5 5 5 5 5 5 5
4 5 4 5 4 4 5 4 4 4 3 3 3 2 2 2 2 3 4 4 3 3 3 3 3 4 5 5 5 5 4 3 4 3 4 5 5 4 5 5 5 5 5 5